TimeMDT,TemperatureF,Dew PointF,Humidity,Sea Level PressureIn,VisibilityMPH,Wind Direction,Wind SpeedMPH,Gust SpeedMPH,PrecipitationIn,Events,Conditions,WindDirDegrees,DateUTC
12:53 AM,46.0,30.0,54,30.01,10.0,SW,11.5,-,N/A,,Mostly Cloudy,230,2012-10-31 06:53:00
1:53 AM,45.0,28.9,53,30.01,10.0,WSW,8.1,-,N/A,,Mostly Cloudy,240,2012-10-31 07:53:00
2:53 AM,46.0,28.0,50,30.01,10.0,SW,11.5,-,N/A,,Scattered Clouds,220,2012-10-31 08:53:00
3:53 AM,45.0,28.0,52,30.01,10.0,SW,9.2,-,N/A,,Scattered Clouds,230,2012-10-31 09:53:00
4:53 AM,46.0,27.0,47,30.01,10.0,SSW,10.4,-,N/A,,Scattered Clouds,210,2012-10-31 10:53:00
5:53 AM,46.9,26.1,44,30.01,10.0,SSW,12.7,-,N/A,,Scattered Clouds,210,2012-10-31 11:53:00
6:53 AM,46.9,25.0,42,30.04,10.0,SSW,15.0,-,N/A,,Partly Cloudy,210,2012-10-31 12:53:00
7:53 AM,48.0,25.0,41,30.06,10.0,SSW,17.3,-,N/A,,Partly Cloudy,210,2012-10-31 13:53:00
8:53 AM,52.0,26.1,37,30.06,10.0,SSW,15.0,-,N/A,,Partly Cloudy,210,2012-10-31 14:53:00
9:53 AM,57.9,28.0,32,30.05,10.0,WSW,10.4,-,N/A,,Partly Cloudy,240,2012-10-31 15:53:00
10:53 AM,63.0,26.1,25,30.06,10.0,West,6.9,-,N/A,,Partly Cloudy,260,2012-10-31 16:53:00
11:53 AM,66.9,24.1,20,30.03,10.0,WSW,3.5,-,N/A,,Partly Cloudy,250,2012-10-31 17:53:00
12:53 PM,69.1,24.1,18,30.01,10.0,NNW,4.6,-,N/A,,Partly Cloudy,330,2012-10-31 18:53:00
1:53 PM,69.1,25.0,19,30.00,10.0,NE,4.6,-,N/A,,Scattered Clouds,50,2012-10-31 19:53:00
2:53 PM,68.0,23.0,18,29.99,10.0,ENE,10.4,-,N/A,,Scattered Clouds,70,2012-10-31 20:53:00
3:53 PM,68.0,25.0,20,29.99,10.0,NE,9.2,-,N/A,,Scattered Clouds,40,2012-10-31 21:53:00
4:53 PM,63.0,30.0,29,30.01,10.0,East,4.6,-,N/A,,Scattered Clouds,100,2012-10-31 22:53:00
5:53 PM,61.0,27.0,27,30.02,10.0,SE,4.6,-,N/A,,Scattered Clouds,140,2012-10-31 23:53:00
6:53 PM,53.1,32.0,45,30.06,10.0,SSE,6.9,-,N/A,,Scattered Clouds,150,2012-11-01 00:53:00
7:53 PM,51.1,30.0,44,30.06,10.0,SSE,9.2,-,N/A,,Scattered Clouds,150,2012-11-01 01:53:00
8:53 PM,51.1,28.9,43,30.06,10.0,South,11.5,-,N/A,,Scattered Clouds,170,2012-11-01 02:53:00
9:53 PM,48.9,28.9,46,30.05,10.0,South,5.8,-,N/A,,Scattered Clouds,190,2012-11-01 03:53:00
10:53 PM,46.9,28.9,50,30.04,10.0,SW,8.1,-,N/A,,Scattered Clouds,220,2012-11-01 04:53:00
11:53 PM,46.0,28.0,50,30.02,10.0,South,8.1,-,N/A,,Scattered Clouds,190,2012-11-01 05:53:00